DW6888 Weather Reports


Display with metric or nautical units.
time (UTC)temp
F
wind
direction
speed
MPH
gust
MPH
rain 1hr
in
rain 24hr
in
rain mn
in
humidity
%
barometer
mb
20260505011304 69 115 0.0 2.0 0.00 0.00 0.00 63 1013.4
20260505010803 69 133 1.0 3.0 0.00 0.00 0.00 62 1013.4
20260505010304 70 131 1.0 2.0 0.00 0.00 0.00 61 1013.6
20260505005304 70 132 1.0 3.0 0.00 0.00 0.00 60 1013.8
20260505004804 70 138 1.0 2.0 0.00 0.00 0.00 59 1013.8
20260505004303 71 179 0.0 3.0 0.00 0.00 0.00 60 1013.8
20260505003303 71 136 1.0 3.0 0.00 0.00 0.00 57 1013.9
20260505002304 72 180 0.0 3.0 0.00 0.00 0.00 56 1013.9
20260505001804 72 140 1.0 6.0 0.00 0.00 0.00 56 1013.8
20260505001304 72 144 2.0 7.0 0.00 0.00 0.00 55 1013.7
20260505000804 72 130 1.0 7.0 0.00 0.00 0.00 55 1013.7
20260505000304 72 143 3.0 7.0 0.00 0.00 0.00 54 1013.7
20260504235804 73 143 2.0 5.0 0.00 0.00 0.00 54 1013.7
20260504235304 73 162 2.0 3.0 0.00 0.00 0.00 53 1013.9
20260504234304 73 147 2.0 6.0 0.00 0.00 0.00 51 1014.0
20260504233804 74 189 0.0 3.0 0.00 0.00 0.00 51 1014.1
20260504233304 74 169 0.0 3.0 0.00 0.00 0.00 52 1014.1
20260504232804 74 153 0.0 3.0 0.00 0.00 0.00 50 1014.0
20260504232304 74 132 2.0 5.0 0.00 0.00 0.00 48 1014.0
20260504231804 75 154 1.0 3.0 0.00 0.00 0.00 48 1014.1
20260504231304 74 189 1.0 3.0 0.00 0.00 0.00 48 1014.2
20260504230804 75 142 2.0 6.0 0.00 0.00 0.00 47 1014.2
20260504230304 75 222 1.0 3.0 0.00 0.00 0.00 47 1014.3
20260504225804 75 206 1.0 3.0 0.00 0.00 0.00 49 1014.3
20260504225304 74 187 2.0 6.0 0.00 0.00 0.00 47 1014.4
20260504224804 75 143 1.0 9.0 0.00 0.00 0.00 46 1014.4